FLOCK 4G 7

导读

FLOCK 4G 7是美国Planet Labs公司鸽群(Flock)星座中的一颗3U立方体光学遥感卫星,于2025年1月14日成功发射。作为全球对地观测星座的补充卫星,它延续了Flock系列技术特点,搭载2900万像素传感器,可从近地轨道获取分辨率约3.7米的地球观测影像,服务于环境监测、资源普查、灾害评估等商业与科研领域,持续完善星座全球重访能力。

Basic Information
目录编号:
62624
目录名称:
FLOCK 4G 7
国际标识:
2025-009R
轨道中心:
EARTH
卫星名称:
FLOCK 4G 7
卫星全名:
FLOCK 4G 7
卫星状态:
在轨 (已飞行599 天)
发射日期:
2025-01-14 UTC
国别 :
美国 (US)
星等 :
--
Orbit Information
数据来源 国际轨道数据
星历时间: 2026-09-04T03:17:05+0800
1天前
查看轨道信息
半长轴: 6851.908km
偏心率: 0.0003623
轨道倾角: 97.389°
近地点辐角 62.547°
升交点赤经 327.733°
平近点角 297.614°
近地点: 471.288km
远地点: 476.254km
周期: 94.076分钟
每日圈数: 15.306838
Detailed Information
使用方式:
暂无
2D Orbit Map
3D Orbit Map
Orbit Altitude Analysis Chart
Orbit Inclination Analysis Chart
Orbit Comprehensive Analysis Chart
View Comprehensive Chart
Conjunction Data List
Event ID Objects TCA Miss Dist (km) Collision Risk Probability Collision Risk Index (CRI) Action
CDM_260906-143306-262406-386622
2026-09-06T
14:33:31+0000
0.928 km
远距离
3.544219E-5 中风险 0.66